AAL1919 KBUF-KCLT

Flight info

Callsign AAL1919
Flight time N/A
Altitude 34000
Route JHW HVQ LNDIZ PARQR4
Aircraft B738/M-SDE2E3FGHIRWXY/LB1

Departure

Time N/A
Airport Buffalo Niagara International Airport (KBUF)

Arrival

Time 2026-05-08 00:15
Airport Charlotte Douglas International Airport (KCLT)
Time Latitude Longitude Altitude Speed Heading
2026-05-07 23:43 37.39783 -81.75690 33961 ft 443 kts 197°
2026-05-07 23:43 37.33606 -81.75606 33967 ft 444 kts 197°
2026-05-07 23:44 37.27436 -81.75516 33977 ft 442 kts 197°
2026-05-07 23:44 37.21286 -81.75436 33994 ft 442 kts 197°
2026-05-07 23:45 37.15124 -81.75354 33995 ft 443 kts 197°
2026-05-07 23:45 37.08999 -81.75362 34009 ft 435 kts 200°
2026-05-07 23:46 37.03011 -81.75867 34007 ft 430 kts 202°
2026-05-07 23:46 36.97014 -81.76379 33993 ft 432 kts 201°
2026-05-07 23:47 36.91017 -81.76853 33977 ft 431 kts 201°
2026-05-07 23:47 36.85073 -81.77379 33981 ft 430 kts 201°
2026-05-07 23:48 36.82064 -81.77654 33452 ft 437 kts 201°
2026-05-07 23:48 36.79044 -81.77924 32800 ft 434 kts 201°
2026-05-07 23:48 36.76035 -81.78184 32106 ft 433 kts 201°
2026-05-07 23:48 36.73029 -81.78445 31354 ft 433 kts 201°
2026-05-07 23:49 36.70016 -81.78709 30585 ft 434 kts 201°
2026-05-07 23:49 36.66988 -81.78976 29705 ft 437 kts 200°
2026-05-07 23:49 36.63951 -81.79243 28762 ft 438 kts 199°
2026-05-07 23:49 36.60919 -81.79503 28232 ft 429 kts 199°
2026-05-07 23:50 36.57984 -81.79743 27986 ft 417 kts 199°
2026-05-07 23:50 36.55141 -81.79979 27814 ft 402 kts 200°
2026-05-07 23:50 36.52395 -81.80216 27656 ft 390 kts 200°
2026-05-07 23:50 36.49687 -81.80463 27509 ft 392 kts 200°
2026-05-07 23:51 36.46981 -81.80715 27347 ft 395 kts 200°
2026-05-07 23:51 36.44205 -81.80615 27150 ft 408 kts 186°
2026-05-07 23:51 36.41390 -81.79521 26873 ft 432 kts 169°
2026-05-07 23:51 36.38756 -81.77799 26522 ft 434 kts 165°
2026-05-07 23:52 36.36128 -81.75968 26095 ft 432 kts 164°
2026-05-07 23:52 36.33526 -81.74133 25672 ft 429 kts 164°
2026-05-07 23:52 36.30930 -81.72324 25258 ft 427 kts 163°
2026-05-07 23:52 36.28335 -81.70541 24795 ft 425 kts 163°
2026-05-07 23:53 36.25741 -81.68776 24358 ft 423 kts 163°
2026-05-07 23:53 36.23162 -81.67040 23929 ft 421 kts 163°
2026-05-07 23:53 36.20589 -81.65312 23486 ft 420 kts 162°
2026-05-07 23:53 36.18031 -81.63591 22990 ft 417 kts 162°
2026-05-07 23:54 36.15492 -81.61881 22530 ft 414 kts 162°
2026-05-07 23:54 36.12976 -81.60190 22210 ft 407 kts 162°
2026-05-07 23:54 36.10501 -81.58527 21821 ft 403 kts 162°
2026-05-07 23:54 36.08043 -81.56875 21409 ft 400 kts 162°
2026-05-07 23:55 36.05601 -81.55235 21010 ft 397 kts 162°
2026-05-07 23:55 36.03178 -81.53608 20590 ft 396 kts 161°
2026-05-07 23:55 36.00767 -81.51994 20180 ft 393 kts 161°
2026-05-07 23:55 35.98398 -81.50409 19806 ft 391 kts 161°
2026-05-07 23:56 35.96005 -81.48808 19361 ft 390 kts 161°
2026-05-07 23:56 35.93623 -81.47217 18940 ft 389 kts 160°
2026-05-07 23:56 35.91244 -81.45630 18524 ft 389 kts 160°
2026-05-07 23:56 35.88868 -81.44044 18049 ft 387 kts 160°
2026-05-07 23:57 35.86508 -81.42467 17589 ft 385 kts 160°
2026-05-07 23:57 35.84165 -81.40902 17212 ft 381 kts 160°
2026-05-07 23:57 35.81873 -81.39369 17127 ft 369 kts 160°
2026-05-07 23:57 35.79643 -81.37880 16954 ft 360 kts 160°
2026-05-07 23:58 35.77466 -81.36425 16725 ft 354 kts 159°
2026-05-07 23:58 35.75333 -81.34928 16418 ft 352 kts 158°
2026-05-07 23:58 35.73226 -81.33411 16106 ft 350 kts 158°
2026-05-07 23:58 35.71131 -81.31899 15765 ft 348 kts 158°
2026-05-07 23:59 35.69042 -81.30396 15430 ft 347 kts 158°
2026-05-07 23:59 35.66961 -81.28905 15073 ft 346 kts 158°
2026-05-07 23:59 35.64885 -81.27422 14729 ft 344 kts 158°
2026-05-07 23:59 35.62819 -81.25948 14383 ft 343 kts 158°
2026-05-08 00:00 35.60762 -81.24483 14020 ft 342 kts 158°
2026-05-08 00:00 35.58702 -81.23018 13676 ft 340 kts 158°
2026-05-08 00:00 35.56657 -81.21563 13313 ft 339 kts 157°
2026-05-08 00:00 35.54663 -81.20034 13077 ft 335 kts 153°
2026-05-08 00:01 35.52957 -81.18070 12916 ft 337 kts 139°
2026-05-08 00:01 35.51134 -81.16373 12377 ft 324 kts 162°
2026-05-08 00:01 35.49136 -81.15213 12035 ft 323 kts 160°
2026-05-08 00:01 35.47182 -81.13918 11906 ft 316 kts 158°
2026-05-08 00:02 35.45315 -81.12544 11765 ft 311 kts 155°
2026-05-08 00:02 35.43490 -81.11129 11631 ft 309 kts 155°
2026-05-08 00:02 35.41688 -81.09710 11515 ft 308 kts 154°
2026-05-08 00:02 35.39793 -81.08540 11380 ft 300 kts 173°
2026-05-08 00:03 35.37756 -81.08210 11286 ft 295 kts 184°
2026-05-08 00:03 35.35713 -81.08050 11233 ft 292 kts 184°
2026-05-08 00:03 35.33689 -81.07899 11246 ft 291 kts 184°
2026-05-08 00:03 35.31661 -81.07736 11253 ft 292 kts 184°
2026-05-08 00:04 35.29630 -81.07562 11254 ft 294 kts 184°
2026-05-08 00:04 35.27575 -81.07383 11014 ft 298 kts 184°
2026-05-08 00:04 35.25504 -81.07199 10772 ft 298 kts 183°
2026-05-08 00:04 35.23451 -81.07015 10521 ft 294 kts 183°
2026-05-08 00:05 35.21430 -81.06833 10281 ft 289 kts 183°
2026-05-08 00:05 35.19436 -81.06654 10044 ft 285 kts 183°
2026-05-08 00:05 35.17472 -81.06479 9805 ft 282 kts 183°
2026-05-08 00:05 35.15518 -81.06307 9538 ft 280 kts 183°
2026-05-08 00:06 35.13588 -81.06136 9269 ft 277 kts 182°
2026-05-08 00:06 35.11662 -81.05966 9002 ft 278 kts 183°
2026-05-08 00:06 35.09719 -81.05796 8748 ft 280 kts 182°
2026-05-08 00:06 35.07767 -81.05624 8491 ft 282 kts 182°
2026-05-08 00:07 35.05810 -81.05467 8245 ft 281 kts 184°
2026-05-08 00:07 35.03859 -81.05453 7982 ft 279 kts 187°
2026-05-08 00:07 35.01949 -81.05510 7731 ft 278 kts 187°
2026-05-08 00:07 35.00017 -81.05579 7482 ft 277 kts 188°
2026-05-08 00:08 34.98067 -81.05653 7219 ft 277 kts 187°
2026-05-08 00:08 34.96170 -81.05560 6961 ft 281 kts 171°
2026-05-08 00:08 34.94462 -81.04371 6706 ft 290 kts 137°
2026-05-08 00:08 34.93497 -81.02219 6471 ft 295 kts 103°
2026-05-08 00:09 34.93454 -80.99744 6261 ft 291 kts 84°
2026-05-08 00:09 34.93685 -80.97310 6025 ft 285 kts 82°
2026-05-08 00:09 34.94188 -80.95045 5736 ft 273 kts 56°
2026-05-08 00:09 34.95513 -80.93562 5487 ft 252 kts 18°
2026-05-08 00:10 34.97187 -80.93189 5129 ft 242 kts 356°
2026-05-08 00:10 34.98854 -80.93250 4805 ft 238 kts 352°
2026-05-08 00:10 35.00491 -80.93386 4498 ft 234 kts 352°
2026-05-08 00:10 35.02112 -80.93534 4178 ft 231 kts 355°
2026-05-08 00:11 35.03702 -80.93674 3872 ft 227 kts 354°
2026-05-08 00:11 35.05261 -80.93808 3584 ft 223 kts 355°
2026-05-08 00:11 35.06765 -80.93938 3289 ft 215 kts 356°
2026-05-08 00:11 35.08218 -80.94064 3023 ft 204 kts 357°
2026-05-08 00:12 35.09600 -80.94184 2760 ft 194 kts 356°
2026-05-08 00:12 35.10915 -80.94298 2525 ft 185 kts 357°
2026-05-08 00:12 35.12165 -80.94404 2287 ft 174 kts 357°
2026-05-08 00:12 35.13330 -80.94505 2031 ft 163 kts 358°
2026-05-08 00:13 35.14408 -80.94580 1863 ft 146 kts 358°
2026-05-08 00:13 35.15333 -80.94725 1771 ft 124 kts 354°
2026-05-08 00:13 35.16190 -80.94798 1476 ft 126 kts
2026-05-08 00:13 35.17092 -80.94846 1374 ft 133 kts 359°
2026-05-08 00:14 35.18042 -80.94946 1246 ft 138 kts 359°
2026-05-08 00:14 35.19028 -80.95002 1047 ft 147 kts 358°
2026-05-08 00:14 35.20061 -80.95095 789 ft 148 kts 359°
2026-05-08 00:14 35.21039 -80.95173 736 ft 129 kts 355°
2026-05-08 00:15 35.21727 -80.95235 740 ft 38 kts 355°
2026-05-08 00:15 35.21923 -80.95202 740 ft 19 kts 22°
2026-05-08 00:15 35.22024 -80.95147 736 ft 8 kts 41°
2026-05-08 00:15 35.22039 -80.95108 734 ft 11 kts 87°
2026-05-08 00:16 35.21967 -80.95049 733 ft 16 kts 173°
2026-05-08 00:16 35.21870 -80.95016 733 ft 9 kts 113°
2026-05-08 00:16 35.21869 -80.94912 732 ft 18 kts 85°
2026-05-08 00:16 35.21880 -80.94797 732 ft 10 kts 84°
2026-05-08 00:17 35.21883 -80.94768 731 ft 1 kts 79°
2026-05-08 00:17 35.21890 -80.94747 731 ft 5 kts 55°
2026-05-08 00:17 35.21933 -80.94721 731 ft 9 kts 21°
2026-05-08 00:17 35.21976 -80.94703 731 ft 4 kts 19°
2026-05-08 00:18 35.21983 -80.94700 731 ft 0 kts 19°